Weather History for Charlottetown, PE

Change the Weather History Date:

Thursday, August 29, 2013

  Actual Average Record
Temperature  
Mean Temperature 60 °F -  
Max Temperature 64 °F 64 °F 78 °F (2005)
Min Temperature 57 °F 48 °F 46 °F (2002)
Degree Days  
Heating Degree Days 4    
Growing Degree Days 10 (Base 50)    
Moisture  
Dew Point 57 °F    
Average Humidity 86    
Maximum Humidity 94    
Minimum Humidity 77    
Precipitation  
Precipitation 0.00 in 0.12 in - ()
Sea Level Pressure  
Sea Level Pressure 30.08 in    
Wind  
Wind Speed 14 mph ()    
Max Wind Speed 21 mph    
Max Gust Speed 29 mph    
Visibility 14.2 miles    
Events Rain    
Averages and records for this station are not official NWS values.
T = Trace of Precipitation, MM = Missing Value Source: Averaged Metar Reports

Daily Weather History Graph

Daily Weather History Graph

Search for Another Location

Airport:

Trip Planner

Search our weather history database for the weather conditions in past years. The results will help you decide how hot, cold, wet, or windy it might be!

Date:

Astronomy

Aug. 29, 2013 Rise Set
Actual Time 6:29 AM ADT 7:56 PM ADT
Civil Twilight 5:57 AM ADT 8:27 PM ADT
Nautical Twilight 5:19 AM ADT 9:05 PM ADT
Astronomical Twilight 4:39 AM ADT 9:46 PM ADT
Moon 12:07 AM ADT (8/29) 3:32 PM ADT (8/29)
Length of Visible Light 14h 29m
Length of Day
13h 27m
Last Quarter, 38% of the Moon is Illuminated
Aug 29
Last Quarter
Sep 5
New
Sep 12
First Quarter
Sep 19
Full
Sep 27
Last Quarter

Hourly Weather History & Observations

Time (ADT) Temp. Dew Point Humidity Pressure Visibility Wind Dir Wind Speed Gust Speed Precip Events Conditions
12:00 AM 62.6 °F 59.0 °F 88% 30.09 in 15.0 mi NNE 12.7 mph - N/A   Overcast
1:00 AM 62.6 °F 59.0 °F 88% 30.09 in 15.0 mi NE 12.7 mph 20.7 mph N/A   Overcast
2:00 AM 62.6 °F 59.0 °F 88% 30.09 in 15.0 mi NE 20.7 mph - N/A   Overcast
3:00 AM 61 °F 56 °F 80% 30.09 in 15 mi NE 18.4 mph - -   Overcast
3:00 AM 60.8 °F 57.2 °F 88% 30.09 in 15.0 mi NE 17.3 mph 28.8 mph N/A   Overcast
4:00 AM 59.0 °F 55.4 °F 88% 30.10 in 15.0 mi NNE 16.1 mph 25.3 mph N/A   Overcast
5:00 AM 57.2 °F 55.4 °F 94% 30.11 in 10.0 mi NE 15.0 mph - N/A   Overcast
6:00 AM 57.2 °F 53.6 °F 88% 30.11 in 12.0 mi NE 11.5 mph 18.4 mph N/A   Overcast
7:00 AM 59.0 °F 55.4 °F 88% 30.13 in 12.0 mi NE 13.8 mph - N/A   Overcast
7:43 AM 60.8 °F 57.2 °F 88% 30.13 in 15.0 mi NNE 12.7 mph - N/A   Light Drizzle
8:00 AM 60.8 °F 57.2 °F 88% 30.13 in 10.0 mi NNE 15.0 mph - N/A   Light Drizzle
8:26 AM 60.8 °F 59.0 °F 94% 30.13 in 15.0 mi NNE 13.8 mph - N/A   Light Drizzle
8:35 AM 60.8 °F 59.0 °F 94% 30.12 in 10.0 mi NE 15.0 mph - N/A Rain Light Rain Showers
9:00 AM 62 °F 59 °F 87% 30.13 in 10 mi NE 13.8 mph - - Rain Light Drizzle
9:00 AM 60.8 °F 59.0 °F 94% 30.13 in 10.0 mi NE 13.8 mph - N/A   Light Drizzle
9:48 AM 62.6 °F 59.0 °F 88% 30.12 in 15.0 mi NE 16.1 mph - N/A   Overcast
9:54 AM 62.6 °F 59.0 °F 88% 30.13 in 15.0 mi NE 16.1 mph - N/A Rain Light Rain Showers
10:00 AM 62.6 °F 59.0 °F 88% 30.13 in 15.0 mi NE 18.4 mph 24.2 mph N/A Rain Light Rain Showers
10:42 AM 62.6 °F 57.2 °F 82% 30.13 in 15.0 mi NE 17.3 mph - N/A   Overcast
11:00 AM 62.6 °F 57.2 °F 82% 30.13 in 15.0 mi NE 13.8 mph - N/A   Overcast
11:34 AM 62.6 °F 57.2 °F 82% 30.12 in 15.0 mi NE 15.0 mph 20.7 mph N/A   Light Drizzle
12:00 PM 62.6 °F 57.2 °F 82% 30.13 in 15.0 mi NE 12.7 mph 19.6 mph N/A   Light Drizzle
1:00 PM 62.6 °F 57.2 °F 82% 30.12 in 15.0 mi NE 12.7 mph - N/A   Light Drizzle
1:45 PM 64.4 °F 57.2 °F 77% 30.12 in 15.0 mi ENE 13.8 mph - N/A   Overcast
2:00 PM 64.4 °F 57.2 °F 77% 30.11 in 15.0 mi NE 17.3 mph - N/A   Overcast
3:00 PM 63 °F 58 °F 78% 30.10 in 15 mi NE 16.1 mph - -   Partly Cloudy
3:00 PM 62.6 °F 57.2 °F 82% 30.10 in 15.0 mi NE 13.8 mph 23.0 mph N/A   Overcast
4:00 PM 62.6 °F 57.2 °F 82% 30.08 in 15.0 mi NNE 19.6 mph 25.3 mph N/A   Overcast
5:00 PM 62.6 °F 57.2 °F 82% 30.07 in 15.0 mi NE 16.1 mph 25.3 mph N/A   Overcast
5:18 PM 60.8 °F 57.2 °F 88% 30.06 in 15.0 mi NE 16.1 mph 25.3 mph N/A   Light Drizzle
6:00 PM 62.6 °F 57.2 °F 82% 30.05 in 15.0 mi NE 16.1 mph 23.0 mph N/A   Light Drizzle
6:17 PM 60.8 °F 57.2 °F 88% 30.04 in 15.0 mi NE 16.1 mph 24.2 mph N/A   Overcast
7:00 PM 60.8 °F 57.2 °F 88% 30.02 in 15.0 mi NE 18.4 mph 25.3 mph N/A   Overcast
7:53 PM 60.8 °F 57.2 °F 88% 30.02 in 15.0 mi NNE 20.7 mph 26.5 mph N/A Rain Light Rain Showers
8:00 PM 60.8 °F 57.2 °F 88% 30.02 in 15.0 mi NE 18.4 mph 26.5 mph N/A Rain Light Rain Showers
9:00 PM 60 °F 57 °F 87% 30.00 in 15 mi NE 16.1 mph - - Rain Light Rain Showers
9:00 PM 60.8 °F 57.2 °F 88% 30.00 in 15.0 mi NE 15.0 mph 24.2 mph N/A Rain Light Rain Showers
9:23 PM 60.8 °F 57.2 °F 88% 29.99 in 15.0 mi NE 17.3 mph 25.3 mph N/A   Overcast
10:00 PM 60.8 °F 57.2 °F 88% 29.97 in 15.0 mi NE 18.4 mph 27.6 mph N/A   Overcast
11:00 PM 60.8 °F 57.2 °F 88% 29.94 in 15.0 mi NE 17.3 mph 25.3 mph N/A   Overcast